Theta_e
313 319 319 318 315 314 314 315 312 313 314 318 320 316 316 316 320 324 314 310 310 312 316 324 328 325 325 325 324 321 320 321 322 321 325 324 332 334 334 334 333 333 333 332 329 327 327 333 332
317 319 318 316 312 315 314 311 312 311 312 316 317 316 313 313 318 317 308 307 307 308 311 317 326 327 328 327 326 324 323 319 322 321 320 321 322 325 329 332 334 335 334 336 335 332 332 329 329
316 316 315 309 309 313 314 311 310 311 312 314 315 313 309 311 311 308 306 306 306 307 307 309 317 325 327 327 328 327 320 324 321 319 321 321 322 319 324 327 333 334 335 335 337 334 332 328 329
316 316 312 310 312 310 310 309 309 310 313 313 314 312 308 308 308 306 306 306 306 307 307 307 309 314 325 328 327 328 327 326 326 324 322 321 322 320 321 324 330 333 334 334 336 335 332 329 330
315 313 309 310 310 310 309 310 310 309 310 309 314 312 307 305 305 305 305 304 304 304 305 306 307 307 312 324 326 327 327 327 327 327 324 321 321 319 320 325 327 328 334 334 335 336 334 330 332
312 310 309 311 310 310 309 309 310 308 308 308 311 308 305 305 306 305 304 304 303 303 302 303 305 306 307 311 322 325 325 324 325 324 323 321 320 321 320 320 323 322 331 334 334 336 334 331 334
307 303 305 307 310 311 309 309 308 307 307 307 308 308 306 306 305 304 304 303 303 303 302 302 302 303 306 307 312 321 324 324 322 323 321 321 321 320 320 321 321 322 324 332 334 335 335 332 332
309 304 305 306 310 311 308 308 307 307 307 307 306 305 305 305 304 304 304 304 304 303 302 302 303 304 304 306 307 310 321 324 322 322 322 322 321 320 321 320 323 323 323 328 331 330 333 332 331
309 305 306 307 309 309 307 307 306 307 306 305 305 304 304 304 305 304 304 304 303 302 302 302 302 303 304 304 306 307 312 323 322 323 322 321 321 322 322 320 321 324 324 325 326 328 327 326 322
306 305 308 307 307 308 306 306 304 304 305 305 304 303 304 304 304 303 302 301 301 301 301 302 302 303 304 304 305 307 310 321 323 323 322 320 320 321 321 321 321 321 322 324 326 326 327 323 327
306 308 307 307 307 307 305 304 303 302 302 303 302 303 304 303 303 302 300 300 300 301 301 302 302 302 303 304 305 309 312 313 321 322 322 320 320 321 321 320 321 321 321 321 323 325 323 323 322
305 304 306 305 305 305 305 304 302 303 302 302 302 302 302 302 301 300 299 299 300 300 301 301 302 302 303 304 306 315 315 318 319 320 321 321 320 320 320 320 319 320 320 321 321 323 321 320 316
304 304 302 302 304 304 303 302 302 302 302 302 302 302 301 300 299 298 297 298 298 299 300 301 302 302 303 305 308 312 314 315 317 319 319 320 319 320 320 320 319 319 319 319 319 319 319 310 309
302 301 301 302 303 303 302 302 303 303 302 301 301 301 300 299 297 297 297 296 296 297 299 300 301 302 303 307 310 313 314 313 315 319 318 317 319 319 319 319 319 319 319 319 317 312 310 310 309
301 301 300 300 301 302 302 301 299 299 300 299 300 299 299 297 296 295 293 294 294 295 297 298 300 302 302 306 309 309 311 312 314 316 318 317 318 318 319 318 318 317 318 316 315 311 309 307 306
299 298 302 300 300 302 300 301 298 299 301 299 299 299 297 296 295 294 293 293 293 294 296 297 298 300 302 305 308 310 309 310 311 314 315 316 318 318 317 317 317 316 315 315 313 312 309 309 310
298 300 301 301 299 299 298 298 297 299 300 298 298 297 297 296 295 294 293 292 293 294 294 295 296 298 301 304 306 307 308 309 310 312 313 314 315 316 316 316 316 315 314 312 309 308 306 307 307
301 300 300 299 299 298 297 298 296 298 299 297 297 296 296 295 294 294 294 293 294 294 295 295 295 295 297 301 304 306 307 307 309 310 311 312 312 312 314 314 313 313 312 309 306 306 305 306 307
298 299 298 298 299 298 297 297 296 297 297 296 296 296 296 295 294 294 294 293 293 294 295 294 293 293 293 294 300 304 305 302 304 306 307 308 310 311 311 311 312 311 311 311 307 305 307 308 308
298 299 300 300 299 299 297 296 297 297 295 295 295 296 295 295 295 295 294 294 293 293 293 294 293 291 291 291 291 292 296 298 298 299 303 304 306 307 308 308 309 310 308 311 309 307 305 305 305
300 299 300 300 299 297 297 297 298 297 295 295 295 295 295 294 294 294 294 293 293 293 292 291 290 290 291 292 291 291 291 291 292 293 296 301 301 303 305 306 306 307 308 306 307 307 306 305 303
301 300 300 300 298 298 296 297 297 296 293 293 293 294 294 294 294 294 294 293 293 292 292 291 290 292 294 295 296 296 295 290 288 288 290 293 300 300 302 304 305 305 305 306 305 305 304 305 303
301 300 300 300 299 298 298 296 295 295 295 292 292 293 293 292 292 292 293 293 292 292 292 291 290 292 293 293 294 295 296 296 292 289 288 292 290 294 300 301 302 303 304 304 303 304 303 302 301
297 295 295 294 296 293 297 295 294 296 296 292 292 291 291 291 290 290 290 291 293 292 292 291 289 292 294 294 294 294 295 297 296 293 289 288 291 291 292 298 300 301 301 302 302 303 303 303 301
296 296 292 294 291 294 293 296 295 293 291 292 291 290 290 290 290 289 289 289 291 292 291 290 290 294 293 292 292 292 291 293 293 293 291 288 288 292 295 292 301 300 300 300 300 300 300 300 300
298 296 295 293 293 293 295 295 295 291 292 291 290 289 289 289 289 289 289 289 290 291 291 290 291 293 293 291 288 287 287 287 288 288 288 287 287 287 288 295 291 300 300 300 299 299 298 299 299
299 295 293 287 281 290 293 295 294 291 290 290 289 288 288 288 289 289 289 289 290 290 290 290 291 290 289 288 289 289 288 287 287 287 287 287 286 286 286 287 287 289 297 299 300 300 298 298 298
297 295 296 290 290 289 291 292 295 292 291 289 288 288 288 289 289 289 289 289 290 290 290 289 288 288 289 289 289 288 288 287 287 287 287 287 287 286 286 286 286 287 288 293 298 299 299 299 298
296 294 293 293 291 291 290 293 291 293 291 289 288 288 288 288 288 288 289 289 289 288 288 288 287 288 288 288 288 287 286 286 286 287 287 286 287 286 286 286 286 286 286 287 289 295 297 298 298
295 296 293 292 291 289 289 293 292 289 289 289 288 288 288 288 287 287 288 288 288 288 287 286 286 286 287 286 286 285 285 285 285 286 286 286 286 286 286 286 286 286 285 286 286 287 293 297 298
Wind_Speed
5 5 4 5 5 6 3 3 1 6 3 7 12 18 15 11 4 5 11 23 27 28 28 26 25 23 23 22 25 31 28 39 35 35 36 38 15 8 11 14 17 18 19 19 20 18 17 16 15
6 4 7 6 5 4 2 3 5 4 7 3 8 6 10 5 12 4 21 27 28 28 27 24 22 22 22 20 18 23 30 22 31 42 31 36 39 29 10 3 16 18 19 19 20 17 17 17 17
7 7 6 4 4 3 3 4 4 4 16 7 4 11 6 9 10 9 18 23 26 28 28 26 23 21 17 19 17 15 18 20 21 32 21 28 33 37 31 17 13 19 20 20 22 23 19 19 17
3 5 9 5 8 2 3 2 6 5 8 15 6 8 10 15 7 15 19 23 25 26 26 26 26 22 20 14 17 18 16 15 16 17 24 22 29 36 38 26 8 19 21 20 23 18 21 20 18
7 6 5 5 4 3 2 3 8 4 3 10 7 4 7 15 13 17 21 25 27 25 24 22 23 23 21 18 14 13 14 15 17 16 18 17 18 23 22 25 19 15 24 21 22 22 21 21 18
6 4 5 4 3 2 2 8 4 6 8 11 6 5 6 12 18 23 23 26 28 28 25 23 20 21 21 20 16 13 12 13 13 13 12 9 14 20 12 13 19 27 13 17 21 26 25 23 21
7 4 4 5 5 3 2 3 5 3 7 7 3 4 5 14 20 22 24 25 29 29 28 25 22 20 18 20 19 17 14 16 15 13 12 14 13 16 14 9 13 19 23 15 19 34 34 27 24
6 6 4 2 3 2 4 3 3 8 5 6 6 5 4 16 18 21 24 28 30 31 29 27 25 22 19 17 19 19 16 15 15 17 17 16 14 15 18 16 10 6 13 11 9 10 32 27 23
5 5 3 3 4 4 4 3 5 4 7 17 10 10 7 12 17 22 26 29 32 31 29 29 28 25 22 18 17 17 17 14 14 16 18 17 15 13 17 14 12 16 6 14 13 11 16 22 20
7 4 3 1 3 3 4 7 4 4 9 7 9 9 8 14 22 27 32 35 35 34 32 30 30 30 26 22 17 17 17 13 16 17 18 17 16 12 12 12 14 15 14 8 11 13 25 15 18
5 5 5 5 7 5 4 6 6 3 5 7 10 10 14 20 25 29 32 33 35 35 33 33 31 30 28 26 21 17 17 15 16 18 19 18 16 13 10 13 16 16 14 12 9 17 21 23 17
7 8 6 4 6 3 4 5 8 12 7 3 8 11 16 22 27 31 32 34 35 35 35 33 32 30 28 25 22 16 18 20 18 20 20 20 16 14 12 14 15 14 10 9 10 16 23 23 24
7 3 8 7 10 10 8 10 8 12 10 10 10 14 20 24 27 29 31 33 35 36 36 36 34 32 28 26 22 18 16 19 18 19 20 22 19 14 13 16 16 13 8 5 12 14 16 18 19
8 15 9 10 11 11 6 5 4 12 9 11 12 16 19 24 28 29 33 36 38 37 38 37 36 35 31 25 21 22 21 19 17 17 17 21 21 15 13 15 13 12 10 8 11 16 20 19 18
11 6 5 14 8 4 7 8 7 15 7 9 15 17 20 24 27 32 32 34 35 36 36 37 36 35 34 26 22 20 21 22 20 17 13 13 17 16 17 15 13 11 8 7 7 13 14 12 11
5 5 4 3 12 2 1 5 14 13 15 21 19 19 20 24 27 29 29 30 32 34 36 35 35 34 33 29 22 20 20 19 17 17 20 14 14 15 16 15 11 12 11 9 9 10 13 16 14
7 3 3 1 7 4 6 4 12 16 22 20 18 18 20 23 26 28 29 31 32 34 35 36 36 35 33 29 23 21 19 19 18 17 18 17 15 14 16 15 13 10 10 9 7 10 13 13 13
5 5 2 3 6 5 6 5 6 13 18 16 15 17 21 24 26 26 27 28 30 31 34 36 37 37 35 30 26 22 23 23 23 21 20 18 17 16 18 16 14 14 12 8 7 10 13 16 17
7 5 5 1 2 4 5 5 4 9 15 15 15 17 20 22 21 23 25 25 26 28 29 32 33 33 36 36 33 29 25 28 27 24 23 21 19 16 16 12 13 11 10 17 12 13 14 15 13
5 6 2 2 3 1 5 4 3 9 8 11 13 15 17 18 20 22 23 24 26 27 28 28 28 30 31 32 35 34 29 29 30 31 27 25 21 17 14 10 8 7 10 12 16 16 16 16 15
3 5 4 3 1 3 3 3 2 3 9 19 19 14 15 17 19 20 21 22 23 24 24 24 24 25 27 30 29 30 34 36 36 37 36 28 25 21 15 12 9 6 7 11 14 15 17 18 18
3 2 5 4 3 2 2 3 4 3 5 16 18 17 16 17 18 18 18 18 20 20 20 20 19 20 24 28 29 31 33 37 36 33 30 32 28 27 21 13 10 8 5 4 11 10 14 16 17
4 2 4 3 3 2 4 3 3 3 3 5 12 13 14 15 17 19 19 16 15 16 17 17 17 19 26 32 33 32 30 29 31 34 32 29 30 30 27 21 17 13 6 4 7 11 14 15 15
9 5 6 4 2 2 2 3 3 4 4 3 3 9 11 13 15 16 16 17 14 14 15 15 14 21 28 33 32 29 29 27 30 31 35 33 28 32 28 27 25 16 14 10 5 7 6 14 14
1 4 3 4 4 4 3 1 6 4 5 6 1 5 8 10 14 19 20 19 14 10 10 11 12 22 25 29 30 23 22 21 20 25 30 32 31 26 30 27 20 18 19 15 10 8 9 8 17
3 4 5 6 2 3 2 5 4 5 8 5 2 1 5 10 17 19 19 19 15 10 10 11 15 21 25 24 24 22 20 20 21 21 22 26 28 27 24 22 22 15 15 18 13 8 10 10 12
3 2 3 7 2 3 2 5 2 3 5 5 4 1 5 11 16 16 15 17 16 11 11 14 17 16 18 19 22 24 24 23 21 20 19 21 22 25 25 24 21 19 14 15 17 15 12 10 7
2 5 3 3 2 4 4 5 5 12 12 7 6 1 4 10 10 11 12 13 12 11 11 13 13 15 17 20 23 24 23 22 22 20 19 18 18 20 23 24 23 22 21 16 13 14 18 15 6
1 1 4 4 4 5 2 6 6 15 11 8 5 1 4 5 7 8 9 10 10 9 10 12 13 13 16 20 22 21 20 20 20 20 20 19 17 18 19 21 22 23 22 22 18 11 11 18 16
1 4 5 4 5 1 3 6 2 8 15 10 7 3 2 1 3 5 6 6 8 9 11 12 14 16 18 19 17 17 17 17 18 21 22 22 19 17 18 18 20 21 21 22 22 19 13 9 16
Wind_Direction
67 88 68 58 58 63 51 39 265 8 29 42 73 96 99 64 25 80 357 353 356 356 357 357 358 359 354 6 5 5 354 337 340 344 349 24 8 257 244 248 250 238 229 226 222 210 202 192 197
70 78 63 73 78 66 9 318 15 350 346 136 76 82 53 71 53 17 1 360 354 354 355 359 355 354 351 356 5 6 10 348 354 339 342 327 349 5 80 182 218 231 236 225 210 208 202 198 199
64 57 56 78 86 100 102 7 331 343 29 57 79 52 47 351 32 6 1 358 357 357 354 354 353 347 348 349 0 8 17 7 16 10 338 333 340 344 357 10 226 218 224 232 223 214 208 202 196
68 61 73 69 85 59 101 337 359 14 30 36 75 70 84 40 19 2 357 353 353 352 353 353 351 348 345 352 352 355 359 3 349 357 14 360 343 350 347 354 296 231 222 217 226 202 210 202 197
62 62 62 77 68 93 46 42 44 53 92 25 48 90 79 29 18 8 5 359 356 354 348 349 349 348 345 347 357 353 347 341 345 346 358 1 352 347 349 342 341 337 239 217 218 222 211 201 199
71 77 71 89 108 118 81 40 57 44 47 40 71 105 113 25 16 13 9 5 1 356 354 350 344 344 345 339 338 334 333 331 340 340 345 332 345 343 350 9 353 356 298 227 223 220 211 200 193
99 73 111 122 138 72 340 64 62 51 46 33 66 82 115 7 15 8 6 8 5 2 358 356 352 342 339 338 336 330 335 335 330 337 337 332 340 337 340 18 31 357 356 266 240 226 210 194 188
82 89 92 85 145 110 350 78 64 44 46 66 54 42 21 1 2 360 3 7 9 5 3 3 1 353 345 338 336 332 331 333 329 330 331 334 333 323 337 343 6 359 344 313 247 184 181 189 187
73 64 87 125 138 146 37 72 38 61 62 66 71 67 30 1 357 355 4 8 6 10 8 5 4 2 354 344 340 335 334 334 331 327 332 337 333 321 317 332 325 324 314 293 289 229 161 159 158
61 79 106 53 99 104 82 73 25 66 64 65 59 45 24 5 6 14 13 12 14 15 15 10 6 4 1 354 344 341 339 341 331 330 333 337 337 330 307 316 318 320 316 312 247 233 210 157 164
41 118 148 63 80 87 74 64 52 76 40 34 15 25 18 12 14 17 18 20 18 16 16 15 12 6 4 0 353 351 349 342 338 333 332 336 339 331 323 309 312 312 310 294 260 219 178 169 167
96 71 107 104 66 90 83 100 78 66 39 33 41 37 26 26 24 20 20 20 18 17 16 14 13 11 7 4 0 5 356 356 343 342 336 333 338 336 322 324 327 325 316 300 243 213 179 174 168
75 103 79 88 102 74 93 76 91 51 46 59 47 27 29 28 26 25 23 23 20 18 15 14 12 11 8 6 8 2 356 358 343 339 343 333 332 333 324 333 332 336 324 274 227 203 181 157 166
109 91 100 82 91 55 96 82 94 26 32 18 22 42 38 30 26 25 25 20 19 17 14 12 13 11 8 7 11 12 9 353 347 339 338 340 332 335 333 330 333 341 342 307 235 193 173 173 176
129 83 60 34 358 49 139 43 62 352 354 60 68 61 44 36 30 29 25 22 19 17 14 12 10 11 11 8 8 6 354 352 350 345 332 340 335 337 335 337 330 328 324 292 264 198 177 172 169
65 55 71 11 21 3 129 110 14 28 77 78 74 61 48 39 35 30 26 22 20 18 16 13 10 8 10 13 7 9 354 349 342 338 340 330 324 324 326 329 326 323 310 287 259 222 181 183 181
15 136 97 25 33 311 34 92 19 65 83 78 66 57 49 44 37 31 25 22 19 17 17 16 12 8 5 11 10 7 0 351 346 343 357 352 328 318 316 314 302 300 300 281 243 221 206 202 198
159 120 82 77 335 30 68 82 22 58 74 73 67 60 50 43 37 30 26 21 18 17 15 14 12 12 8 7 12 14 7 354 352 353 352 346 343 338 314 316 310 309 288 253 233 221 211 211 205
103 100 111 49 4 24 59 97 29 44 57 57 57 53 49 44 37 34 28 22 19 16 12 15 16 18 15 14 13 14 24 20 12 357 347 354 349 341 329 318 310 293 287 317 256 231 221 210 204
82 115 85 53 359 116 44 92 92 48 44 47 48 49 43 41 35 29 22 17 16 13 13 10 14 23 26 26 28 26 20 21 20 17 9 6 357 351 348 331 321 305 278 276 268 251 235 228 211
37 129 156 132 25 73 105 98 115 71 64 62 59 55 43 30 23 18 14 12 9 7 10 11 17 28 34 33 27 26 29 25 21 18 12 11 12 7 3 352 334 319 291 265 257 253 254 238 227
146 129 108 114 110 190 25 223 214 178 57 44 43 42 34 24 19 12 6 1 0 3 4 4 9 12 21 19 18 20 20 18 15 16 16 16 13 22 12 16 357 340 323 298 262 248 246 244 231
158 88 88 80 89 65 357 74 231 208 91 30 35 40 34 29 26 20 11 357 350 353 360 2 1 6 7 3 1 359 6 7 11 9 11 17 15 12 17 24 31 18 341 300 260 243 241 241 238
148 80 58 53 72 38 272 109 232 190 168 123 38 20 28 30 27 24 17 8 351 347 352 358 5 4 4 358 351 355 355 339 353 2 4 8 12 11 15 11 16 19 16 11 311 257 238 230 242
118 87 -0 358 10 210 347 8 257 159 141 141 90 32 18 23 21 15 11 9 0 349 345 348 355 357 3 359 357 359 3 8 15 8 358 0 6 9 4 7 8 12 12 9 357 304 242 240 238
182 158 152 214 208 259 331 241 282 172 146 128 143 349 19 21 24 21 13 10 7 354 347 341 343 351 353 353 349 359 360 357 357 1 360 1 3 8 10 357 3 3 358 3 8 342 327 289 235
197 93 138 102 57 43 243 290 214 186 196 190 203 257 20 28 24 24 33 27 18 3 351 347 350 357 357 353 349 352 355 355 355 353 355 357 2 3 8 8 6 4 351 354 357 4 357 339 290
180 144 87 7 117 274 284 273 234 205 215 200 213 279 30 32 27 33 40 37 29 10 349 341 345 348 353 351 346 348 349 350 352 353 352 351 356 1 1 6 10 10 5 360 344 355 4 1 328
149 74 51 109 130 174 230 256 212 207 181 187 192 217 46 41 39 43 40 35 28 9 347 340 335 337 342 345 343 344 352 359 358 358 358 352 351 354 2 3 5 16 12 9 6 346 352 358 4
270 193 156 132 223 158 144 268 307 153 157 171 189 178 125 84 60 46 31 18 10 357 344 338 336 338 341 342 346 351 355 0 4 6 5 0 353 349 353 359 -0 8 17 14 12 10 1 2 357